METAR AND TAF INFORMATION
METAR FOR KBDL
KBDL 230434Z 14006KT 10SM SCT015 BKN039 OVC120 25/22 A3001 RMK AO2 T02500217
KBDL 230420Z 15006KT 10SM BKN015 BKN120 OVC140 25/22 A3001 RMK AO2 T02500217
KBDL 230351Z 13006KT 10SM SCT016 BKN120 OVC150 25/22 A3002 RMK AO2 SLP163 T02500217
KBDL 230251Z 15005KT 10SM BKN190 BKN230 25/21 A3004 RMK AO2 SLP170 T02500211 50003
KBDL 230151Z 16008KT 10SM FEW100 SCT140 BKN200 25/21 A3004 RMK AO2 SLP172 T02500206
KBDL 230520Z 2306/2412 16004KT P6SM -RA OVC040
FM230900 00000KT P6SM VCSH OVC010
FM231300 07003KT P6SM BKN015
FM232200 15003KT P6SM VCSH BKN050
FM240300 00000KT 6SM BR VCSH BKN030

 AIRPORT MAP

 RUNWAY INFORMATION
Runway 01 Runway length 5145 ft Runway width 100 ft
Runway elevation 171 ft Runway displaced threshold 0 ft Runway heading 359
Runway 19 Runway length 5145 ft Runway width 100 ft
Runway elevation 169 ft Runway displaced threshold 0 ft Runway heading 179
Runway 06 Runway length 9510 ft Runway width 200 ft
Runway elevation 173 ft Runway displaced threshold 0 ft Runway heading 44
Runway 24 Runway length 9510 ft Runway width 200 ft
Runway elevation 161 ft Runway displaced threshold 0 ft Runway heading 224
Runway 15 Runway length 6847 ft Runway width 150 ft
Runway elevation 169 ft Runway displaced threshold 0 ft Runway heading 135
Runway 33 Runway length 6847 ft Runway width 150 ft
Runway elevation 168 ft Runway displaced threshold 0 ft Runway heading 315

 AIRPORT FREQUENCIES
Type APP Name APP Frequency 123.95 MHZ
Type APP Name APP Frequency 32.58 MHZ
Type ATIS Name ATIS Frequency 118.15 MHZ
Type CLD Name CLNC DEL Frequency 121.75 MHZ
Type DEP Name DEP Frequency 123.95 MHZ
Type DEP Name DEP Frequency 35.9 MHZ
Type GND Name GND Frequency 121.9 MHZ
Type MISC Name ARNG OPS Frequency 41.9 MHZ
Type OPS Name ANG OPS Frequency 138.55 MHZ
Type RDO Name BRIDGEPORT Frequency 122.3 MHZ
Type TWR Name TWR Frequency 120.3 MHZ
Type UNIC Name UNICOM Frequency 122.95 MHZ

 AIRPORT NEAR NAVIGATION AIDS
Type NDB Name Chupp Frequency 388 KHZ
Type VORTAC Name Bradley Frequency 109000 KHZ

-